Weather History for Inverness, FL

Change the Weather History Date:

Friday, February 1, 2013

  Actual Average (KOCF) Record (KOCF)
Temperature  
Mean Temperature 50 °F -  
Max Temperature 68 °F 67 °F 84 °F (2002)
Min Temperature 32 °F 44 °F 30 °F (2009)
Degree Days  
Heating Degree Days 15    
Moisture  
Dew Point 33 °F    
Average Humidity 65    
Maximum Humidity 100    
Minimum Humidity 20    
Precipitation  
Precipitation 0.00 in - - ()
Sea Level Pressure  
Sea Level Pressure 30.31 in    
Wind  
Wind Speed 2 mph (North)    
Max Wind Speed 12 mph    
Max Gust Speed 16 mph    
Visibility 9 miles    
Events      
Averages and records for this station are not official NWS values.
T = Trace of Precipitation, MM = Missing Value Source: NWS Daily Summary

Daily Weather History Graph

Daily Weather History Graph

Search for Another Location

Airport:

Trip Planner

Search our weather history database for the weather conditions in past years. The results will help you decide how hot, cold, wet, or windy it might be!

Date:

Astronomy

Feb. 01, 2013 Rise Set
Actual Time 7:17 AM EST 6:08 PM EST
Civil Twilight 6:52 AM EST 6:33 PM EST
Nautical Twilight 6:24 AM EST 7:01 PM EST
Astronomical Twilight 5:56 AM EST 7:29 PM EST
Moon 11:39 PM EST (2/1) 10:22 AM EST (2/1)
Length of Visible Light 11h 40m
Length of Day
10h 51m
Waning Gibbous, 70% of the Moon is Illuminated
Feb 1
Waning Gibbous
Feb 3
Last Quarter
Feb 10
New
Feb 17
First Quarter
Feb 25
Full

Hourly Weather History & Observations

Time (EST) Temp. Dew Point Humidity Pressure Visibility Wind Dir Wind Speed Gust Speed Precip Events Conditions
12:15 AM 37.4 °F 33.8 °F 87% 30.27 in 10.0 mi Calm Calm - N/A   Clear
12:35 AM 37.4 °F 33.8 °F 87% 30.27 in 10.0 mi Calm Calm - N/A   Clear
12:55 AM 37.4 °F 33.8 °F 87% 30.27 in 10.0 mi Calm Calm - N/A   Clear
1:15 AM 35.6 °F 33.8 °F 93% 30.27 in 10.0 mi Calm Calm - N/A   Clear
1:35 AM 35.6 °F 32.0 °F 87% 30.27 in 10.0 mi Calm Calm - N/A   Clear
1:55 AM 35.6 °F 33.8 °F 93% 30.27 in 10.0 mi Calm Calm - N/A   Clear
2:15 AM 33.8 °F 32.0 °F 93% 30.27 in 10.0 mi Calm Calm - N/A   Clear
2:35 AM 33.8 °F 32.0 °F 93% 30.28 in 10.0 mi Calm Calm - N/A   Clear
2:55 AM 33.8 °F 32.0 °F 93% 30.28 in 10.0 mi Calm Calm - N/A   Clear
3:15 AM 33.8 °F 32.0 °F 93% 30.29 in 10.0 mi Calm Calm - N/A   Clear
3:35 AM 33.8 °F 32.0 °F 93% 30.29 in 10.0 mi Calm Calm - N/A   Clear
4:15 AM 32.0 °F 32.0 °F 100% 30.29 in 10.0 mi Calm Calm - N/A   Clear
4:35 AM 32.0 °F 32.0 °F 100% 30.29 in 10.0 mi Calm Calm - N/A   Clear
4:55 AM 32.0 °F 32.0 °F 100% 30.29 in 10.0 mi Calm Calm - N/A   Clear
5:15 AM 32.0 °F 32.0 °F 100% 30.29 in 10.0 mi Calm Calm - N/A   Clear
5:35 AM 32.0 °F 32.0 °F 100% 30.30 in 10.0 mi Calm Calm - N/A   Clear
6:15 AM 32.0 °F 32.0 °F 100% 30.32 in 10.0 mi Calm Calm - N/A   Clear
6:35 AM 32.0 °F 32.0 °F 100% 30.33 in 10.0 mi Calm Calm - N/A   Clear
6:55 AM 32.0 °F 32.0 °F 100% 30.33 in 10.0 mi Calm Calm - N/A   Clear
7:15 AM 32.0 °F 30.2 °F 93% 30.34 in 10.0 mi Calm Calm - N/A   Clear
7:35 AM 32.0 °F 30.2 °F 93% 30.35 in 10.0 mi Calm Calm - N/A   Clear
8:15 AM 35.6 °F 33.8 °F 93% 30.37 in 10.0 mi Calm Calm - N/A   Clear
8:35 AM 41.0 °F 35.6 °F 81% 30.37 in 10.0 mi Calm Calm - N/A   Clear
9:15 AM 50.0 °F 32.0 °F 50% 30.38 in 10.0 mi North 4.6 mph - N/A   Clear
9:35 AM 53.6 °F 32.0 °F 44% 30.38 in 10.0 mi NNW 4.6 mph - N/A   Clear
9:55 AM 55.4 °F 30.2 °F 38% 30.39 in 10.0 mi North 10.4 mph - N/A   Clear
10:15 AM 55.4 °F 30.2 °F 38% 30.39 in 10.0 mi North 10.4 mph - N/A   Clear
10:35 AM 59.0 °F 30.2 °F 34% 30.39 in 10.0 mi North 8.1 mph - N/A   Clear
10:55 AM 59.0 °F 30.2 °F 34% 30.39 in 7.0 mi North 11.5 mph 16.1 mph N/A   Clear
11:15 AM 60.8 °F 30.2 °F 31% 30.38 in 7.0 mi North 10.4 mph - N/A   Clear
11:35 AM 60.8 °F 30.2 °F 31% 30.38 in 7.0 mi North 9.2 mph - N/A   Clear
11:55 AM 62.6 °F 30.2 °F 30% 30.37 in 7.0 mi NNE 9.2 mph - N/A   Clear
12:15 PM 62.6 °F 30.2 °F 30% 30.36 in 7.0 mi NNE 8.1 mph - N/A   Clear
12:35 PM 64.4 °F 26.6 °F 24% 30.35 in 7.0 mi North 3.5 mph - N/A   Clear
12:55 PM 64.4 °F 26.6 °F 24% 30.34 in 7.0 mi WNW 4.6 mph - N/A   Clear
1:15 PM 66.2 °F 28.4 °F 24% 30.32 in 7.0 mi North 4.6 mph - N/A   Clear
1:35 PM 66.2 °F 26.6 °F 23% 30.32 in 5.0 mi NNW 6.9 mph - N/A   Haze
1:55 PM 68.0 °F 28.4 °F 23% 30.30 in 7.0 mi North 6.9 mph - N/A   Clear
2:15 PM 68.0 °F 24.8 °F 20% 30.29 in 7.0 mi Calm Calm - N/A   Clear
2:35 PM 68.0 °F 24.8 °F 20% 30.29 in 7.0 mi NNW 5.8 mph - N/A   Clear
2:55 PM 68.0 °F 26.6 °F 21% 30.29 in 7.0 mi North 4.6 mph - N/A   Clear
3:15 PM 68.0 °F 26.6 °F 21% 30.28 in 7.0 mi NNW 5.8 mph - N/A   Clear
3:35 PM 68.0 °F 26.6 °F 21% 30.28 in 7.0 mi Calm Calm - N/A   Clear
3:55 PM 66.2 °F 28.4 °F 24% 30.28 in 7.0 mi Calm Calm - N/A   Clear
4:15 PM 66.2 °F 32.0 °F 28% 30.28 in 7.0 mi Calm Calm - N/A   Clear
4:35 PM 64.4 °F 33.8 °F 32% 30.28 in 7.0 mi WNW 3.5 mph - N/A   Clear
4:55 PM 62.6 °F 35.6 °F 37% 30.28 in 10.0 mi Calm Calm - N/A   Clear
5:15 PM 62.6 °F 35.6 °F 37% 30.28 in 10.0 mi Calm Calm - N/A   Clear
5:35 PM 60.8 °F 37.4 °F 42% 30.29 in 10.0 mi West 4.6 mph - N/A   Clear
6:15 PM 57.2 °F 41.0 °F 55% 30.29 in 10.0 mi Calm Calm - N/A   Clear
6:35 PM 55.4 °F 41.0 °F 58% 30.29 in 10.0 mi Calm Calm - N/A   Clear
6:55 PM 53.6 °F 41.0 °F 62% 30.29 in 10.0 mi Calm Calm - N/A   Clear
7:15 PM 51.8 °F 41.0 °F 67% 30.30 in 10.0 mi Calm Calm - N/A   Clear
7:35 PM 50.0 °F 41.0 °F 71% 30.29 in 10.0 mi Calm Calm - N/A   Clear
7:55 PM 46.4 °F 41.0 °F 81% 30.29 in 10.0 mi Calm Calm - N/A   Clear
8:15 PM 46.4 °F 41.0 °F 81% 30.30 in 10.0 mi Calm Calm - N/A   Clear
8:35 PM 44.6 °F 39.2 °F 81% 30.31 in 10.0 mi Calm Calm - N/A   Clear
8:55 PM 42.8 °F 39.2 °F 87% 30.32 in 10.0 mi Calm Calm - N/A   Clear
9:15 PM 46.4 °F 41.0 °F 81% 30.32 in 10.0 mi Calm Calm - N/A   Clear
9:35 PM 46.4 °F 41.0 °F 81% 30.32 in 10.0 mi Calm Calm - N/A   Clear
9:55 PM 44.6 °F 41.0 °F 87% 30.32 in 10.0 mi Calm Calm - N/A   Clear
10:15 PM 42.8 °F 39.2 °F 87% 30.33 in 10.0 mi Calm Calm - N/A   Clear
10:35 PM 42.8 °F 39.2 °F 87% 30.33 in 10.0 mi Calm Calm - N/A   Clear
10:55 PM 41.0 °F 37.4 °F 87% 30.33 in 10.0 mi Calm Calm - N/A   Clear
11:15 PM 41.0 °F 39.2 °F 93% 30.33 in 10.0 mi Calm Calm - N/A   Clear
11:35 PM 41.0 °F 37.4 °F 87% 30.32 in 10.0 mi Calm Calm - N/A   Clear
11:55 PM 39.2 °F 39.2 °F 100% 30.33 in 10.0 mi Calm Calm - N/A   Clear